Regional Weather Roundup
Issued by NWS

Home | Current Version | Previous Version | Graphics & Text | Print | Product List | Glossary On
Versions: 1 2 3 4 5 6 7 8 9 10 11 12 13 14 15 16 17 18 19 20 21 22 23 24 25 26 27 28 29 30 31 32 33 34 35 36 37 38 39 40 41 42 43 44 45 46 47
000
ASUS45 KBOU 280407
RWRCO

WEATHER ROUNDUP FOR COLORADO
NATIONAL WEATHER SERVICE DENVER/BOULDER CO
1000 PM MDT MON APR 27 2015

NOTE: "FAIR" INDICATES FEW OR NO CLOUDS BELOW 12000 FEET WITH NO
SIGNIFICANT WEATHER AND/OR OBSTRUCTIONS TO VISIBILITY.

COZ001>005-013-030-031-280500-
...NORTHWEST COLORADO...

CITY           SKY/WX    TMP DP  RH WIND       PRES   REMARKS
CRAIG          MOCLDY    45  38  76 S5        30.25R
HAYDEN         CLOUDY    45  37  76 E7        30.26R
MEEKER         PTCLDY    41  37  86 CALM      30.25R
MOUNT WERNER   NOT AVBL
STEAMBOAT SPGS CLOUDY    42  39  90 NE6       30.27R
WALDEN         MOCLDY    34  30  86 NW8       30.30R WCI  27
$$

COZ006>008-011-280500-
...WEST CENTRAL VALLEYS...

CITY           SKY/WX    TMP DP  RH WIND       PRES   REMARKS
GRAND JUNCTION MOCLDY    55  39  54 NE13      30.15R
MONTROSE       MOCLDY    51  38  60 S14       30.20R
EAGLE          CLOUDY    46  41  81 W6        30.26R
RIFLE          CLOUDY    52  41  66 VRB5      30.20R
DELTA          CLOUDY    58  38  47 MISG      30.17R
NUCLA          CLOUDY    52  37  58 S3        30.21R
$$

COZ017>023-064>068-280500-
...SOUTHWEST COLORADO...

CITY           SKY/WX    TMP DP  RH WIND       PRES   REMARKS
DURANGO        MOCLDY    45  44  97 NE5       30.20R
CORTEZ         PTCLDY    53  38  56 N7        30.15R
PAGOSA SPRINGS MOCLDY    41  40  97 CALM      30.25R
TELLURIDE      LGT RAIN  38  35  90 CALM      30.30R
WOLF CREEK PAS NOT AVBL
$$

COZ009-010-012-014-032>034-037-058>063-280500-
...CENTRAL COLORADO...

CITY           SKY/WX    TMP DP  RH WIND       PRES   REMARKS
ASPEN          MOCLDY    40  34  79 S3        30.24R
BUENA VISTA    CLOUDY    39  33  79 SE5       30.34R
COPPER MTN     MOCLDY    30  23  74 S5        30.38S WCI  25
BERTHOUD PASS  HAZE      19  12  73 E12       30.41S VSB 1/4 WCI   7
COTTONWOOD PAS CLOUDY    34  32  93 SE9       30.37R WCI  26
GUNNISON       PTCLDY    45  25  45 E10       30.29R
KREMMLING      MOCLDY    39  32  75 CALM      30.28R
LEADVILLE      MOCLDY    30  27  88 S10       30.32R WCI  21
MONARCH PASS   CLOUDY    25  23  93 MISG      30.44R
SALIDA         CLOUDY    40  34  80 E8        30.41R
SUNLIGHT       LGT SNOW  34  34 100 NE6       30.38R WCI  29
WILKERSON PASS FOG       25  23  93 NE9       30.40S VSB 3/4 WCI  15
$$

COZ069>075-280500-
...SAN LUIS VALLEY/SANGRE DE CRISTO MOUNTAINS...

CITY           SKY/WX    TMP DP  RH WIND       PRES   REMARKS
ALAMOSA        CLEAR     37  25  61 E6        30.27R
LA VETA PASS   FOG       28  27  93 MISG      30.33R VSB 1/4
SAGUACHE       CLEAR     37  28  70 N9        30.29R
$$

COZ035-036-038>040-280500-
...NORTHERN COLORADO FRONT RANGE...

CITY           SKY/WX    TMP DP  RH WIND       PRES   REMARKS
DENVER INTL AP CLOUDY    44  39  82 CALM      30.33R
DMNS CITY PARK   N/A     43  39  85 E1        30.34R
AURORA         MOCLDY    42  41  99 CALM      30.34R
FRONT RANGE AP NOT AVBL
ERIE MUNI ARPT CLOUDY    46  41  85 CALM      30.34R
BOULDER MUN AP DRIZZLE   43  43 100 CALM      30.34R
CENTENNIAL     MOCLDY    42  38  85 CALM      30.34R
BROOMFIELD     CLOUDY    45  41  87 VRB3      30.35R
FORT COLLINS   MOCLDY    45  39  81 W5        30.35R
LONGMONT       CLOUDY    47  43  86 CALM      30.36R
$$

COZ041-046-047-076>085-087-088-280500-
...PIKES PEAK/PALMER DIVIDE AND SOUTHERN FOOTHILLS...

CITY           SKY/WX    TMP DP  RH WIND       PRES   REMARKS
COLO. SPRINGS  CLOUDY    44  28  53 NE12      30.35R
A. F. ACADEMY  CLOUDY    40  34  78 NW6       30.35R
ELLICOTT       CLOUDY   N/A N/A N/A N14       30.32R
FALCON         CLOUDY    39  30  68 N6        30.36R
FORT CARSON    CLOUDY    44  33  67 N8        30.32R
LIMON          CLOUDY    43  39  86 NW10      30.32R
MONUMENT HILL  CLOUDY    36  28  75 N6        30.34S
TRINIDAD       CLOUDY    44  36  73 N13       30.29R
$$

COZ042>045-048>051-090-091-280500-
...NORTHEAST COLORADO...

CITY           SKY/WX    TMP DP  RH WIND       PRES   REMARKS
GREELEY ARPT   CLOUDY    46  37  71 CALM      30.34R
AKRON          PTCLDY    42  36  79 NW7       30.30R
BURLINGTON     CLEAR     43  33  68 N6        30.26R
WRAY           PTCLDY    45  37  71 CALM      30.26R
STERLING       CLOUDY    46  43  87 N7        30.29R
HOLYOKE        MOCLDY    48  37  66 NW5       30.27R
FORT MORGAN    CLOUDY    47  42  85 W7        30.32R
$$

COZ086-089-092>099-280500-
...SOUTHEAST COLORADO...

CITY           SKY/WX    TMP DP  RH WIND       PRES   REMARKS
PUEBLO         CLOUDY    48  38  68 N13       30.30R
LA JUNTA       MOCLDY    47  35  63 N7        30.28R
LAMAR          MOCLDY    43  34  70 CALM      30.24
SPRINGFIELD      N/A     43  33  68 N13       30.23R
$$


USA.gov is the U.S. government's official web portal to all federal, state and local government web resources and services.